IOR-W (EGNOS/PRN 126)

Last updated on May 20, 2019, 3:10 a.m. UTC

1 28899U 05044A   19139.53313243 -.00000000  00000-0  00000+0 0  9996
2 28899   2.8326  25.2944 0004101  48.1338  59.2985  1.00270820 49571
UTC
Height (km)
Latitude
Longitude
Inclination
Orbital Period
UTC large
Height (km)
Speed (km/s)
/
Latitude / Longitude
Inclination (degrees)
Orbital Period (minutes)
Azimuth
Elevation
Range (km)
Doppler Factor
iOS Compass Heading
iOS Angle

Next 30 passes for location: Hong Kong

Rise time Rise Azimuth (degrees) Set time Set Azimuth (degrees) Duration Max altitude (degrees)

No matching passes for this satellites